Regional Weather Roundup
Issued by NWS Little Rock, AR

Home | Current Version | Previous Version | Graphics & Text | Print | Product List | Glossary On
Versions: 1 2 3 4 5 6 7 8 9 10 11 12 13 14 15 16 17 18 19 20 21 22 23 24 25 26 27 28 29 30 31 32 33 34 35
000
ASUS44 KLZK 231105
RWRLZK

WEATHER ROUNDUP FOR ARKANSAS
NATIONAL WEATHER SERVICE LITTLE ROCK AR
600 AM CDT WED MAY 23 2018

NOTE: "FAIR" INDICATES FEW OR NO CLOUDS BELOW 12,000 FEET WITH NO
SIGNIFICANT WEATHER AND/OR OBSTRUCTIONS TO VISIBILITY.

ARZ001-003-010-029-231200-
NORTHWEST ARKANSAS

CITY           SKY/WX    TMP DP  RH WIND       PRES   REMARKS
FAYETTEVILLE   FOG       62  62 100 CALM      30.07R VSB 1/2
FORT SMITH     MOCLDY    69  68  96 E3        30.04R
HARRISON       FOG       64  64 100 E3        30.09R VSB 1/4
BENTONVILLE    CLEAR     67  65  93 E5        30.10R
ROGERS         CLEAR     66  65  96 CALM      30.09R
SILOAM SPGS    CLEAR     64  64 100 CALM      30.08R
HIGHFILL       CLEAR     64  62  93 CALM      30.08R
SPRINGDALE     CLEAR     66  66 100 CALM      30.09
$$

ARZ004-005-016-231200-
NORTH CENTRAL ARKANSAS

CITY           SKY/WX    TMP DP  RH WIND       PRES   REMARKS
BATESVILLE     CLOUDY    66  66 100 NW3       30.08R FOG
FLIPPIN        FOG       65  65 100 CALM      30.08R VSB 1/4
MTN HOME       PTCLDY    67  67 100 CALM      30.07R
$$

ARZ040-041-231200-
WEST CENTRAL ARKANSAS

CITY           SKY/WX    TMP DP  RH WIND       PRES   REMARKS
MENA           CLOUDY    68  66  94 CALM      30.07R
MOUNT IDA      CLOUDY    67  67 100 CALM      30.03R
$$

ARZ009-017-025-026-028-231200-
NORTHEAST ARKANSAS

CITY           SKY/WX    TMP DP  RH WIND       PRES   REMARKS
CORNING        FAIR      72  72 100 NE6       30.07R
JONESBORO      FAIR      68  68 100 CALM      30.05R
NEWPORT        FAIR      70  70 100 N3        30.06R FOG
WALNUT RIDGE     N/A     72  71  97 CALM      30.06R FOG
BLYTHEVILLE    FAIR      72  69  90 E3        30.06R
$$

ARZ022-023-033-042-044-231200-
CENTRAL ARKANSAS

CITY           SKY/WX    TMP DP  RH WIND       PRES   REMARKS
LITTLE ROCK    MOCLDY    68  68 100 CALM      30.04R
N LITTLE ROCK    N/A     69  68  96 S3        30.01R
CONWAY         CLOUDY    70  70 100 CALM      30.04R FOG
SEARCY         FAIR      68  32  26 CALM      30.06R
HOT SPRINGS    PTCLDY    69  69 100 NW3       30.04R
RUSSELLVILLE   CLOUDY    67  67 100 CALM      30.04R
CLINTON        MOCLDY    66  64  94 CALM      30.06S FOG
$$

ARZ036-231200-
EAST ARKANSAS

CITY           SKY/WX    TMP DP  RH WIND       PRES   REMARKS
WEST MEMPHIS   FAIR      71  70  96 CALM      30.04R
$$

ARZ050-053-066-070-073-231200-
SOUTHWEST ARKANSAS

CITY           SKY/WX    TMP DP  RH WIND       PRES   REMARKS
ARKADELPHIA    FAIR      67  67 100 CALM      30.04R FOG
CAMDEN         FAIR      66  64  94 CALM      30.02S FOG
TEXARKANA      MOCLDY    67  67 100 E5        30.03R FOG
EL DORADO      FAIR      68  68 100 CALM      30.04R
DE QUEEN       PTCLDY    69  69 100 CALM      30.02R
$$

ARZ056-057-069-231200-
SOUTHEAST ARKANSAS

CITY           SKY/WX    TMP DP  RH WIND       PRES   REMARKS
PINE BLUFF     FAIR      70  68  93 CALM      30.04R
STUTTGART      FAIR      73  71  93 CALM      30.05R
MONTICELLO     FAIR      70  68  93 CALM      30.04R

$$






USA.gov is the U.S. government's official web portal to all federal, state and local government web resources and services.